sat.trackr.live / text

‹ back to catalog

STARLINK-31727

NORAD 59638 · 2024-082H

PAYLOAD ACTIVE UNKNOWN

§ Identity

Operator
Country
US
Launch date
2024-05-03
Launch site
AFETR
Launch vehicle
Mass (kg)
RCS (m²)

Purposes: comms

External: N2YO · Heavens-Above · Gunter

§ Orbital elements

Epoch: 2026-09-21T07:14:13.545888Z

Period
94.27 min
Inclination
43.0027°
Eccentricity
0.0001159
Mean motion
15.27575376 rev/d
Perigee alt
482.3 km
Apogee alt
483.9 km
Semi-major
6,861.2 km
B*
-9.3537e-6
RAAN
115.4911°
Arg perigee
268.0831°
Mean anomaly
91.9888°
Rev number
13,477

§ Raw data

STARLINK-317271 59638U 24082H   26264.30154567 -.00000519  00000+0 -93537-5 0  99962 59638  43.0027 115.4911 0001159 268.0831  91.9888 15.27575376134778

JSON: /api/v1/satellites/59638 · /tle

For live sub-satellite position, see the globe view (requires WebGL).

§ Visibility from observer

Set your observer location to see the next 7 days of passes ≥ 10°. The values pass through the URL so the page stays shareable.

No JS? Fill the form by hand. The geolocation button needs JavaScript.